Location: Haliburton Scout Reserve
(45.0900°N, 78.3200°W)
Time: 16:25:40
(UTC-04:00)

IDEFIX/ARIANE 42P - Visible Passes

Search period start: 20 August 2014 00:00
Search period end: 30 August 2014 00:00
Orbit: 785 x 804 km, 98.3° (Epoch: 20 August)

Date Brightness Start Highest point End Pass type
(mag) Time Alt. Az. Time Alt. Az. Time Alt. Az.
20 Aug 4.1 21:34:42 10° SSW 21:39:24 35° W 21:44:08 10° NNW visible
21 Aug 3.1 21:06:03 10° S 21:11:09 62° W 21:16:18 10° NNW visible
22 Aug 2.6 20:37:53 10° SSE 20:43:02 76° ENE 20:48:13 10° N visible
22 Aug 5.2 22:20:27 10° WSW 22:23:14 15° W 22:26:01 10° NW visible
23 Aug 4.6 21:50:32 10° SSW 21:54:48 26° W 21:59:05 10° NW visible
24 Aug 3.6 21:21:33 10° S 21:26:29 45° W 21:31:28 10° NNW visible
25 Aug 2.7 20:53:07 10° S 20:58:18 80° WSW 21:03:30 10° NNW visible
26 Aug 2.7 20:25:09 10° SSE 20:30:13 59° ENE 20:35:19 10° N visible
26 Aug 5.0 22:06:39 10° SW 22:10:14 19° W 22:13:50 10° NW visible
27 Aug 4.2 21:37:14 10° SSW 21:41:51 33° W 21:46:31 10° NNW visible
28 Aug 3.2 21:08:31 10° S 21:13:36 58° W 21:18:43 10° NNW visible
29 Aug 2.5 20:40:17 10° SSE 20:45:27 81° ENE 20:50:40 10° NNW visible
29 Aug 5.2 22:23:13 10° WSW 22:25:42 13° W 22:28:12 10° WNW visible
